Run for the Toad

Overall Finish List

October 03, 2015


Results By Speed River Timing. Omissions or Corrections? speedrivertiming@gmail.com Speed River Timing

50k relay

Place Name City Bib No Gender Age Group Chip Time Gun Time
1 Speed River New Team Guelph 342 M 1 0- 0 2:50:28.3 2:52:16.3
2 Cumberland Vall Team Hagerstown Maryland USA 341 M 2 0- 0 3:09:08.0 3:09:08.0
3 Brant Death Rac Team Brantford 315 M 3 0- 0 3:37:44.1 3:37:46.3
4 Tadpol Titans Team Kitchener 343 M 4 0- 0 3:43:03.4 3:43:07.1
5 Bucket One Team Pairs 326 M 5 0- 0 3:50:05.3 3:50:07.9
6 Hamiltone Stall Team Toronto 333 M 6 0- 0 3:50:18.8 3:50:23.0
7 Kingsway 1 Team Toronto 321 F 1 0- 0 3:59:46.9 3:59:52.6
8 Kingsway 3 Team Mississauga 320 M 7 0- 0 4:01:59.8 4:02:04.3
9 Silver Bullets Team Toronto 332 M 8 0- 0 4:09:08.3 4:09:31.3
10 C4 Team Jarvis 313 M 9 0- 0 4:15:01.5 4:15:23.0
11 Running Down A Team Guelph 324 F 2 0- 0 4:20:05.6 4:20:24.4
12 Just Too Fast Team Waterloo 314 M 10 0- 0 4:20:58.8 4:21:06.5
13 Kingsway 2 Team Toronto 322 M 11 0- 0 4:25:46.7 4:25:51.2
14 Pdhs Apathletic Team Paris 300 M 12 0- 0 4:29:56.8 4:29:59.6
15 The Golden Badg Team Brantford 344 M 13 0- 0 4:33:26.5 4:33:48.3
16 Busch Tall Boys Team Brantford 316 M 14 0- 0 4:35:08.5 4:35:20.0
17 Venomous Comman Team Ancaster 349 M 15 0- 0 4:35:31.4 4:35:40.9
18 Niagara Falls D Team Thorold 363 M 16 0- 0 4:38:45.7 4:39:08.7
19 Runners By Choi Team Waterloo 317 M 17 0- 0 4:42:33.5 4:42:47.3
20 The Dream Team Team Mississuaga 319 F 3 0- 0 4:52:19.6 4:52:30.0
21 We Thought They Team Kitchener 346 F 4 0- 0 4:52:56.6 4:53:09.8
22 Ladies Of Bdr Team Brantford 325 F 5 0- 0 4:53:49.7 4:54:11.5
23 Plenary A Team Toronto 303 M 18 0- 0 4:56:28.0 4:56:53.3
24 Wkrp And Friend Team St. Jacobs 308 F 6 0- 0 4:58:03.5 4:58:14.9
25 Babes Of Bdr Team Paris 348 F 7 0- 0 4:59:02.4 4:59:10.3
26 Stahlbaum Strea Team St George 309 F 8 0- 0 4:59:54.7 5:00:19.2
27 Plenary B Team Toronto 304 M 19 0- 0 5:01:57.7 5:02:14.1
28 Normandale Ridg Team Port Dover 353 M 20 0- 0 5:02:18.2 5:02:52.0
29 Ya We Are...aga Team Brantford 347 F 9 0- 0 5:05:09.2 5:05:31.6
30 Halton Harriers Team Burlington 336 F 10 0- 0 5:05:36.4 5:05:43.9
31 Runs Of Anarchy Team Waterloo 352 M 21 0- 0 5:06:53.1 5:20:28.6
32 Friends Of Bdr Team Brantford 364 F 11 0- 0 5:11:43.9 5:12:00.7
33 Kinetic Energy Team Waterloo 334 F 12 0- 0 5:11:55.9 5:12:18.3
34 Hill Is A Four Team Kitchener 305 F 13 0- 0 5:12:18.2 5:12:43.3
35 Sons Of Runs Of Team Waterloo 351 M 22 0- 0 5:15:30.4 5:15:39.0
36 T.r.fitness Team Waterford 323 F 14 0- 0 5:16:27.1 5:16:31.9
37 Doin It In The Team Burlington 335 F 15 0- 0 5:17:29.7 5:17:37.5
38 Ayrheads Team Ayr 302 M 23 0- 0 5:22:07.1 5:22:41.5
39 Kickin Ass N Ta Team Brantford 345 F 16 0- 0 5:22:19.4 5:22:22.8
40 Polly's Plodder Team Millgrove 330 F 17 0- 0 5:27:24.7 5:27:49.4
41 I Earn My Bacon Team Cambridge 328 F 18 0- 0 5:29:12.4 5:29:19.2
42 Dirty Girls Team Kitchener 307 F 19 0- 0 5:29:35.2 5:29:53.3
43 Wtf....i Though Team Ayr 339 M 24 0- 0 5:35:49.4 5:36:09.7
44 Toadally Awesom Team Woodstock 327 F 20 0- 0 5:38:12.4 5:38:37.7
45 Saturday Mornin Team New Hamburg 331 M 25 0- 0 5:41:15.1 5:41:22.1
46 3 Mamas And A P Team St. Thomas 306 F 21 0- 0 5:52:20.9 5:52:54.5
47 Ladies Of The T Team Otterville 350 F 22 0- 0 5:55:05.7 5:55:38.8
48 Toad Trailers Team Kitchener 329 F 23 0- 0 6:28:34.2 6:28:41.1
49 The Conditions Team Ohsweken 310 F 24 0- 0 6:42:22.8 6:43:01.5
50 Port Dover Poll Team Port Dover 337 F 25 0- 0 6:47:15.5 6:47:50.2